Buffalo, MN

10:00 PM CST on January 23, 2017 (GMT -0600)
Buffalo

Weather History for KCFE - July, 2013

Change the Weather History Date:

Thursday, July 25, 2013

  Actual Average (KMIC) Record (KMIC)
Temperature  
Mean Temperature 70 °F -  
Max Temperature 78 °F 81 °F 98 °F (1999)
Min Temperature 62 °F 60 °F 50 °F (2004)
Cooling Degree Days 5    
Growing Degree Days 20 (Base 50)    
Moisture  
Dew Point 60 °F    
Average Humidity 68    
Maximum Humidity 85    
Minimum Humidity 49    
Precipitation  
Precipitation 0.00 in - - ()
Sea Level Pressure  
Sea Level Pressure 29.96 in    
Wind  
Wind Speed 4 mph (SW)    
Max Wind Speed 14 mph    
Max Gust Speed 24 mph    
Visibility 10 miles    
Events Rain    
Averages and records for this station are not official NWS values.
T = Trace of Precipitation, MM = Missing Value Source: NWS Daily Summary

Daily Weather History Graph

Daily Weather History Graph

Search for Another Location

Airport or City:

Trip Planner

Search our weather history database for the weather conditions in past years. The results will help you decide how hot, cold, wet, or windy it might be!

Date:

Astronomy

Jul. 25, 2013 Rise Set
Actual Time 5:52 AM CDT 8:50 PM CDT
Civil Twilight 5:17 AM CDT 9:24 PM CDT
Nautical Twilight 4:33 AM CDT 10:09 PM CDT
Astronomical Twilight 3:40 AM CDT 11:01 PM CDT
Moon 10:17 PM CDT (7/25) 9:35 AM CDT (7/25)
Length of Visible Light 16h 07m
Length of Day
14h 57m
Waning Gibbous, 88% of the Moon is Illuminated
Jul 25
Waning Gibbous
Jul 29
Last Quarter
Aug 6
New
Aug 14
First Quarter
Aug 20
Full

Hourly Weather History & Observations

Time (CDT) Temp. Dew Point Humidity Pressure Visibility Wind Dir Wind Speed Gust Speed Precip Events Conditions
12:14 AM 66.2 °F 56.3 °F 70% 29.98 in 10.0 mi South 4.6 mph - N/A   Scattered Clouds
12:34 AM 66.6 °F 56.3 °F 69% 29.98 in 10.0 mi South 5.8 mph - N/A   Scattered Clouds
12:55 AM 67.3 °F 56.7 °F 69% 29.98 in 10.0 mi SSW 4.6 mph - N/A   Mostly Cloudy
1:14 AM 67.3 °F 56.3 °F 68% 29.98 in 10.0 mi SSW 4.6 mph - N/A   Mostly Cloudy
1:34 AM 66.2 °F 56.7 °F 71% 29.97 in 10.0 mi WSW 3.5 mph - N/A Rain Light Rain
1:55 AM 65.5 °F 58.1 °F 77% 29.96 in 10.0 mi Calm Calm - N/A Rain Light Rain
2:14 AM 65.5 °F 57.7 °F 76% 29.98 in 10.0 mi NNW 8.1 mph - N/A   Mostly Cloudy
2:34 AM 65.8 °F 57.6 °F 75% 29.97 in 10.0 mi WNW 3.5 mph - N/A   Mostly Cloudy
2:54 AM 66.2 °F 57.4 °F 73% 29.97 in 10.0 mi Calm Calm - N/A   Mostly Cloudy
3:14 AM 65.5 °F 57.6 °F 76% 29.96 in 10.0 mi SSE 3.5 mph - N/A   Scattered Clouds
3:34 AM 63.7 °F 56.5 °F 77% 29.96 in 10.0 mi SE 3.5 mph - N/A   Clear
3:54 AM 63.7 °F 56.5 °F 77% 29.96 in 10.0 mi Calm Calm - N/A   Clear
4:14 AM 64.0 °F 56.3 °F 76% 29.96 in 10.0 mi Calm Calm - N/A   Clear
4:34 AM 63.9 °F 56.3 °F 76% 29.96 in 10.0 mi Calm Calm - N/A   Clear
4:54 AM 63.7 °F 56.5 °F 77% 29.96 in 10.0 mi Calm Calm - N/A   Clear
5:14 AM 62.8 °F 56.5 °F 80% 29.95 in 10.0 mi SSW 3.5 mph - N/A   Clear
5:34 AM 62.1 °F 56.8 °F 83% 29.95 in 10.0 mi SSW 4.6 mph - N/A   Clear
5:54 AM 62.1 °F 57.2 °F 84% 29.95 in 10.0 mi Calm Calm - N/A   Clear
6:14 AM 62.1 °F 57.4 °F 85% 29.95 in 10.0 mi SSW 3.5 mph - N/A   Clear
6:34 AM 62.1 °F 57.6 °F 85% 29.95 in 10.0 mi Calm Calm - N/A   Clear
6:54 AM 63.1 °F 58.6 °F 85% 29.95 in 10.0 mi Calm Calm - N/A   Clear
7:14 AM 64.6 °F 59.5 °F 84% 29.96 in 10.0 mi Calm Calm - N/A   Clear
7:34 AM 65.5 °F 59.9 °F 82% 29.96 in 10.0 mi South 3.5 mph - N/A   Clear
7:54 AM 66.4 °F 60.3 °F 81% 29.97 in 10.0 mi South 3.5 mph - N/A   Clear
8:14 AM 67.3 °F 61.0 °F 80% 29.97 in 10.0 mi SSW 3.5 mph - N/A   Clear
8:34 AM 68.0 °F 61.3 °F 79% 29.97 in 10.0 mi SSW 3.5 mph - N/A   Clear
8:54 AM 69.4 °F 62.1 °F 77% 29.97 in 10.0 mi SW 3.5 mph - N/A   Clear
9:14 AM 71.4 °F 62.2 °F 73% 29.97 in 10.0 mi SW 3.5 mph - N/A   Clear
9:34 AM 72.5 °F 62.8 °F 71% 29.98 in 10.0 mi SSW 3.5 mph - N/A   Clear
9:54 AM 73.4 °F 62.2 °F 68% 29.97 in 10.0 mi SW 3.5 mph - N/A   Clear
10:14 AM 74.5 °F 61.5 °F 64% 29.97 in 10.0 mi West 5.8 mph - N/A   Clear
10:34 AM 74.7 °F 61.5 °F 63% 29.97 in 10.0 mi West 3.5 mph - N/A   Clear
10:54 AM 76.1 °F 60.8 °F 59% 29.97 in 10.0 mi Calm Calm - N/A   Clear
11:14 AM 76.1 °F 59.4 °F 56% 29.97 in 10.0 mi SSW 3.5 mph - N/A   Clear
11:34 AM 76.1 °F 61.5 °F 60% 29.98 in 10.0 mi WSW 4.6 mph - N/A   Scattered Clouds
11:54 AM 76.1 °F 61.7 °F 61% 29.98 in 10.0 mi SW 3.5 mph - N/A   Scattered Clouds
12:14 PM 77.0 °F 61.5 °F 59% 29.99 in 10.0 mi SW 3.5 mph - N/A   Clear
12:34 PM 76.6 °F 60.6 °F 58% 29.99 in 10.0 mi SW 3.5 mph - N/A   Scattered Clouds
12:54 PM 77.2 °F 59.7 °F 55% 29.99 in 10.0 mi WSW 6.9 mph - N/A   Scattered Clouds
1:14 PM 77.0 °F 59.9 °F 55% 29.99 in 10.0 mi West 6.9 mph - N/A   Mostly Cloudy
1:34 PM 74.3 °F 63.3 °F 68% 29.98 in 10.0 mi WSW 3.5 mph - N/A Rain Light Rain
1:54 PM 75.6 °F 64.6 °F 69% 29.98 in 10.0 mi West 6.9 mph - N/A   Mostly Cloudy
2:14 PM 76.1 °F 61.7 °F 61% 29.98 in 10.0 mi WNW 11.5 mph 16.1 mph N/A   Scattered Clouds
2:34 PM 74.8 °F 60.1 °F 60% 29.99 in 10.0 mi WNW 13.8 mph 24.2 mph N/A   Scattered Clouds
2:54 PM 70.0 °F 58.3 °F 66% 29.99 in 10.0 mi WNW 10.4 mph 20.7 mph N/A   Light Drizzle
3:14 PM 70.2 °F 58.3 °F 66% 29.97 in 10.0 mi WNW 9.2 mph - N/A   Overcast
3:34 PM 73.0 °F 58.1 °F 59% 29.95 in 10.0 mi West 5.8 mph - N/A   Mostly Cloudy
3:54 PM 74.3 °F 57.9 °F 57% 29.95 in 10.0 mi WNW 3.5 mph - N/A   Scattered Clouds
4:14 PM 74.8 °F 58.8 °F 57% 29.94 in 10.0 mi Calm Calm - N/A   Scattered Clouds
4:34 PM 75.9 °F 59.2 °F 56% 29.94 in 10.0 mi WSW 3.5 mph - N/A   Scattered Clouds
4:54 PM 76.3 °F 58.8 °F 55% 29.94 in 10.0 mi SW 3.5 mph - N/A   Clear
5:14 PM 77.9 °F 58.5 °F 51% 29.93 in 10.0 mi West 8.1 mph - N/A   Clear
5:34 PM 78.1 °F 57.7 °F 49% 29.94 in 10.0 mi West 9.2 mph - N/A   Clear
5:55 PM 76.8 °F 58.8 °F 54% 29.94 in 10.0 mi West 9.2 mph - N/A   Scattered Clouds
6:14 PM 76.1 °F 59.5 °F 56% 29.94 in 10.0 mi West 8.1 mph - N/A   Overcast
6:34 PM 76.1 °F 59.9 °F 57% 29.93 in 10.0 mi West 6.9 mph - N/A   Mostly Cloudy
6:55 PM 76.6 °F 60.6 °F 58% 29.93 in 10.0 mi WSW 5.8 mph - N/A   Scattered Clouds
7:14 PM 76.1 °F 60.3 °F 58% 29.92 in 10.0 mi WSW 4.6 mph - N/A   Scattered Clouds
7:34 PM 75.6 °F 60.8 °F 60% 29.93 in 10.0 mi SW 3.5 mph - N/A   Mostly Cloudy
7:55 PM 75.2 °F 60.4 °F 60% 29.93 in 10.0 mi SW 4.6 mph - N/A   Overcast
8:14 PM 74.8 °F 60.3 °F 60% 29.93 in 10.0 mi SW 4.6 mph - N/A   Mostly Cloudy
8:34 PM 73.9 °F 61.0 °F 64% 29.93 in 10.0 mi Calm Calm - N/A   Mostly Cloudy
8:55 PM 73.4 °F 60.8 °F 65% 29.94 in 10.0 mi SSW 3.5 mph - N/A   Overcast
9:14 PM 72.5 °F 60.8 °F 67% 29.94 in 10.0 mi Calm Calm - N/A   Overcast
9:34 PM 72.5 °F 61.3 °F 68% 29.95 in 10.0 mi SSW 3.5 mph - N/A   Mostly Cloudy
9:55 PM 72.3 °F 61.9 °F 70% 29.95 in 10.0 mi South 3.5 mph - N/A   Mostly Cloudy
10:14 PM 70.9 °F 61.5 °F 72% 29.94 in 10.0 mi SSW 3.5 mph - N/A   Scattered Clouds
10:34 PM 70.7 °F 61.7 °F 73% 29.94 in 10.0 mi Calm Calm - N/A   Mostly Cloudy
10:55 PM 70.3 °F 61.7 °F 74% 29.94 in 10.0 mi Calm Calm - N/A   Light Drizzle
11:14 PM 70.0 °F 61.7 °F 75% 29.94 in 10.0 mi SW 4.6 mph - N/A   Mostly Cloudy
11:34 PM 70.0 °F 61.7 °F 75% 29.94 in 10.0 mi SW 4.6 mph - N/A   Mostly Cloudy
11:54 PM 69.1 °F 62.1 °F 78% 29.94 in 10.0 mi SW 4.6 mph - N/A   Mostly Cloudy